Las Vegas, NV

12:31 AM PDT on March 26, 2017 (GMT -0700)
McCarran International

Weather History for KLAS - January, 2013

Change the Weather History Date:

Tuesday, January 8, 2013

  Actual Average Record
Temperature  
Mean Temperature 52 °F 48 °F  
Max Temperature 65 °F 57 °F 74 °F (1962)
Min Temperature 38 °F 39 °F 19 °F (1937)
Degree Days  
Heating Degree Days 13 17  
Month to date heating degree days 171 138  
Since 1 July heating degree days 844 985  
Cooling Degree Days 0 0  
Month to date cooling degree days 0 0  
Year to date cooling degree days 0 0  
Moisture  
Dew Point 23 °F    
Average Humidity 33    
Maximum Humidity 42    
Minimum Humidity 24    
Precipitation  
Precipitation 0.00 in 0.02 in 0.25 in (1940)
Month to date precipitation 0.00 0.16  
Year to date precipitation 0.00 0.16  
Snow  
Snow 0.00 in 0.00 in T in (1974)
Month to date snowfall 0.0 0.0  
Since 1 July snowfall T 0.2  
Snow Depth 0.00 in    
Sea Level Pressure  
Sea Level Pressure 30.12 in    
Wind  
Wind Speed 4 mph (SSW)    
Max Wind Speed 14 mph    
Max Gust Speed 16 mph    
Visibility 10 miles    
Events      
T = Trace of Precipitation, MM = Missing Value Source: NWS Daily Summary

Daily Weather History Graph

Daily Weather History Graph

Search for Another Location

Airport or City:

Trip Planner

Search our weather history database for the weather conditions in past years. The results will help you decide how hot, cold, wet, or windy it might be!

Date:

Astronomy

Jan. 08, 2013 Rise Set
Actual Time 6:51 AM PST 4:43 PM PST
Civil Twilight 6:23 AM PST 5:11 PM PST
Nautical Twilight 5:51 AM PST 5:43 PM PST
Astronomical Twilight 5:20 AM PST 6:14 PM PST
Moon 3:30 AM PST (1/8) 1:49 PM PST (1/8)
Length of Visible Light 10h 48m
Length of Day
9h 51m
Waning Crescent, 13% of the Moon is Illuminated
Jan 8
Waning Crescent
Jan 11
New
Jan 18
First Quarter
Jan 26
Full
Feb 3
Last Quarter

Hourly Weather History & Observations

Time (PST) Temp. Windchill Dew Point Humidity Pressure Visibility Wind Dir Wind Speed Gust Speed Precip Events Conditions
12:56 AM 44.1 °F 39.0 °F 12.9 °F 28% 30.03 in 10.0 mi South 9.2 mph - N/A   Scattered Clouds
1:56 AM 43.0 °F 37.7 °F 12.9 °F 30% 30.04 in 10.0 mi SW 9.2 mph - N/A   Scattered Clouds
2:56 AM 41.0 °F 34.7 °F 14.0 °F 33% 30.05 in 10.0 mi SSW 10.4 mph - N/A   Scattered Clouds
3:56 AM 39.9 °F 34.5 °F 14.0 °F 35% 30.04 in 10.0 mi SSW 8.1 mph - N/A   Scattered Clouds
4:56 AM 41.0 °F 37.1 °F 14.0 °F 33% 30.05 in 10.0 mi SSW 5.8 mph - N/A   Mostly Cloudy
5:56 AM 37.9 °F 34.4 °F 15.1 °F 39% 30.09 in 10.0 mi SW 4.6 mph - N/A   Scattered Clouds
6:56 AM 41.0 °F 34.3 °F 16.0 °F 36% 30.10 in 10.0 mi SSW 11.5 mph - N/A   Mostly Cloudy
7:56 AM 46.9 °F - 19.9 °F 34% 30.14 in 10.0 mi WSW 3.5 mph - N/A   Scattered Clouds
8:56 AM 50.0 °F - 21.0 °F 32% 30.15 in 10.0 mi SW 6.9 mph - N/A   Partly Cloudy
9:56 AM 54.0 °F - 23.0 °F 30% 30.16 in 10.0 mi Calm Calm - N/A   Partly Cloudy
10:56 AM 57.9 °F - 26.1 °F 30% 30.14 in 10.0 mi Calm Calm - N/A   Partly Cloudy
11:56 AM 60.1 °F - 26.1 °F 27% 30.11 in 10.0 mi Calm Calm - N/A   Scattered Clouds
12:56 PM 63.0 °F - 26.1 °F 25% 30.09 in 10.0 mi ENE 5.8 mph - N/A   Scattered Clouds
1:56 PM 64.0 °F - 26.1 °F 24% 30.08 in 10.0 mi Calm Calm - N/A   Scattered Clouds
2:56 PM 64.0 °F - 26.1 °F 24% 30.09 in 10.0 mi SSE 3.5 mph - N/A   Scattered Clouds
3:56 PM 64.9 °F - 27.0 °F 24% 30.10 in 10.0 mi ENE 4.6 mph - N/A   Scattered Clouds
4:56 PM 60.1 °F - 26.1 °F 27% 30.12 in 10.0 mi Calm Calm - N/A   Scattered Clouds
5:56 PM 57.9 °F - 28.0 °F 32% 30.14 in 10.0 mi Calm Calm - N/A   Partly Cloudy
6:56 PM 57.9 °F - 28.0 °F 32% 30.15 in 10.0 mi Calm Calm - N/A   Clear
7:56 PM 55.0 °F - 28.0 °F 35% 30.17 in 10.0 mi Calm Calm - N/A   Clear
8:56 PM 54.0 °F - 28.9 °F 38% 30.18 in 10.0 mi Calm Calm - N/A   Clear
9:56 PM 51.1 °F - 28.9 °F 43% 30.19 in 10.0 mi West 3.5 mph - N/A   Clear
10:56 PM 50.0 °F - 28.9 °F 44% 30.19 in 10.0 mi South 8.1 mph - N/A   Partly Cloudy
11:56 PM 46.0 °F 41.4 °F 28.9 °F 51% 30.20 in 10.0 mi SSW 9.2 mph - N/A   Partly Cloudy